Location: Chmeln�
(49.6483°N, 14.9871°E)
Time: 08:44:30
(UTC+00:00)

Cosmos 2263 Rocket - Pass Details

Date: 18 September 2020
Orbit: 822 x 850 km, 71.0° (Epoch: 27 October)

Event Time Altitude Azimuth Distance (km) Brightness Sun altitude
Rises 19:33:08 0° 246° (WSW) 3,354 5.8 -23.3°
Reaches altitude 10° 19:35:56 10° 259° (W) 2,427 5.2 -23.6°
Maximum altitude 19:40:36 27° 316° (NW) 1,557 4.3 -24.3°
Drops below altitude 10° 19:45:18 10° 13° (NNE) 2,451 4.9 -24.9°
Sets 19:48:09 0° 26° (NNE) 3,393 5.5 -25.3°
